When you browse on this site, cookies collect data to enhance your experience and personalize the content and advertising you see.
Visit our Privacy Policy to learn more. By continuing to use the site, you agree to this use of cookies and data.
  • In Hungary
  • List of Countries
  • For 7 days
  • Water Temperature
  • Satellite Maps
  • Weather Map
  • News
  • Weather Widgets
  • user-avatar
    Login

    Hourly Weather Adeje

    Today, 19 March, Tuesday

    Time Temperature Precipitation Wind Pressure Humidity
    00:00 +15°C° 0 mm 7 mps 729 mmHg 89%
    01:00 +15°C° 0 mm 7 mps 729 mmHg 89%
    02:00 +15°C° 0 mm 7 mps 729 mmHg 89%
    03:00 +15°C° 0 mm 7 mps 728 mmHg 90%
    04:00 +15°C° 0 mm 7 mps 728 mmHg 90%
    05:00 +14°C° 0 mm 7 mps 728 mmHg 92%
    06:00 +14°C° 0 mm 6 mps 729 mmHg 89%
    07:00 +15°C° 0 mm 6 mps 729 mmHg 86%
    08:00 +15°C° 0 mm 6 mps 729 mmHg 82%
    09:00 +16°C° 0 mm 6 mps 729 mmHg 78%
    10:00 +17°C° 0 mm 5 mps 729 mmHg 73%
    11:00 +19°C° 0 mm 4 mps 730 mmHg 69%
    12:00 +19°C° 0 mm 4 mps 729 mmHg 70%
    13:00 +19°C° 0 mm 5 mps 729 mmHg 71%
    14:00 +19°C° 0 mm 5 mps 729 mmHg 73%
    15:00 +19°C° 0 mm 5 mps 728 mmHg 74%
    16:00 +17°C° 0 mm 5 mps 728 mmHg 75%
    17:00 +17°C° 0 mm 5 mps 728 mmHg 77%
    18:00 +17°C° 0 mm 5 mps 728 mmHg 79%
    19:00 +16°C° 0 mm 5 mps 728 mmHg 82%
    20:00 +16°C° 0 mm 6 mps 728 mmHg 84%
    21:00 +16°C° 0 mm 5 mps 728 mmHg 85%
    22:00 +16°C° 0 mm 5 mps 728 mmHg 85%
    23:00 +15°C° 0 mm 5 mps 728 mmHg 86%

    Tomorrow, 20 March, Wednesday

    Time Temperature Precipitation Wind Pressure Humidity
    00:00 +15°C° 0 mm 5 mps 728 mmHg 86%
    01:00 +15°C° 0 mm 4 mps 728 mmHg 87%
    02:00 +15°C° 0 mm 4 mps 727 mmHg 88%
    03:00 +15°C° 0 mm 4 mps 727 mmHg 88%
    04:00 +15°C° 0 mm 4 mps 727 mmHg 89%
    05:00 +14°C° 0 mm 5 mps 727 mmHg 90%
    06:00 +15°C° 0 mm 5 mps 727 mmHg 86%
    07:00 +16°C° 0 mm 5 mps 727 mmHg 82%
    08:00 +16°C° 0 mm 5 mps 728 mmHg 78%
    09:00 +17°C° 0 mm 5 mps 728 mmHg 73%
    10:00 +20°C° 0 mm 5 mps 728 mmHg 68%
    11:00 +21°C° 0 mm 5 mps 728 mmHg 63%
    12:00 +21°C° 0 mm 4 mps 728 mmHg 63%
    13:00 +21°C° 0 mm 4 mps 727 mmHg 64%
    14:00 +21°C° 0 mm 4 mps 727 mmHg 64%
    15:00 +21°C° 0 mm 4 mps 727 mmHg 67%
    16:00 +20°C° 0 mm 4 mps 727 mmHg 71%
    17:00 +20°C° 0 mm 5 mps 726 mmHg 74%
    18:00 +19°C° 0 mm 5 mps 727 mmHg 77%
    19:00 +19°C° 0 mm 5 mps 727 mmHg 79%
    20:00 +17°C° 0 mm 5 mps 727 mmHg 82%
    21:00 +17°C° 0 mm 5 mps 727 mmHg 83%
    22:00 +17°C° 0 mm 5 mps 727 mmHg 84%
    23:00 +17°C° 0 mm 5 mps 727 mmHg 85%

    Day after tomorrow, 21 March, Thursday

    Time Temperature Precipitation Wind Pressure Humidity
    00:00 +17°C° 0 mm 6 mps 727 mmHg 85%
    01:00 +17°C° 0 mm 6 mps 726 mmHg 85%
    02:00 +17°C° 0 mm 6 mps 726 mmHg 85%
    03:00 +17°C° 0 mm 6 mps 726 mmHg 86%
    04:00 +16°C° 0 mm 6 mps 726 mmHg 86%
    05:00 +16°C° 0 mm 7 mps 725 mmHg 87%
    06:00 +16°C° 0 mm 7 mps 726 mmHg 85%
    07:00 +17°C° 0 mm 7 mps 726 mmHg 84%
    08:00 +17°C° 0 mm 7 mps 726 mmHg 82%
    09:00 +18°C° 0 mm 7 mps 726 mmHg 74%
    10:00 +20°C° 0 mm 7 mps 727 mmHg 67%
    11:00 +21°C° 0 mm 6 mps 727 mmHg 59%
    12:00 +21°C° 0 mm 6 mps 726 mmHg 59%
    13:00 +21°C° 0 mm 6 mps 726 mmHg 59%
    14:00 +21°C° 0 mm 6 mps 725 mmHg 59%
    15:00 +20°C° 0 mm 6 mps 725 mmHg 64%
    16:00 +20°C° 0 mm 6 mps 725 mmHg 70%
    17:00 +18°C° 0 mm 7 mps 725 mmHg 75%
    18:00 +17°C° 0 mm 7 mps 725 mmHg 78%
    19:00 +17°C° 0 mm 7 mps 725 mmHg 80%
    20:00 +16°C° 0 mm 8 mps 725 mmHg 83%
    21:00 +16°C° 0 mm 8 mps 725 mmHg 84%
    22:00 +16°C° 0 mm 8 mps 725 mmHg 84%
    23:00 +16°C° 0 mm 8 mps 725 mmHg 85%

    22 March, Friday

    Time Temperature Precipitation Wind Pressure Humidity
    00:00 +16°C° 0 mm 8 mps 725 mmHg 84%
    01:00 +16°C° 0 mm 8 mps 724 mmHg 84%
    02:00 +16°C° 0 mm 8 mps 724 mmHg 84%
    03:00 +15°C° 0 mm 8 mps 724 mmHg 85%
    04:00 +15°C° 0 mm 8 mps 724 mmHg 87%
    05:00 +15°C° 0 mm 8 mps 724 mmHg 88%
    06:00 +15°C° 0 mm 8 mps 724 mmHg 88%
    07:00 +15°C° 0 mm 8 mps 725 mmHg 87%
    08:00 +15°C° 0 mm 8 mps 725 mmHg 86%
    09:00 +16°C° 0 mm 8 mps 725 mmHg 81%
    10:00 +17°C° 0 mm 7 mps 725 mmHg 76%
    11:00 +17°C° 0 mm 7 mps 726 mmHg 71%
    12:00 +18°C° 0 mm 7 mps 725 mmHg 70%
    13:00 +18°C° 0 mm 7 mps 725 mmHg 70%
    14:00 +18°C° 0 mm 7 mps 725 mmHg 69%
    15:00 +17°C° 0 mm 7 mps 724 mmHg 72%
    16:00 +17°C° 0 mm 7 mps 724 mmHg 75%
    17:00 +16°C° 0 mm 7 mps 724 mmHg 78%
    18:00 +16°C° 0 mm 7 mps 725 mmHg 80%
    19:00 +16°C° 0 mm 7 mps 725 mmHg 82%
    20:00 +15°C° 0 mm 7 mps 726 mmHg 84%
    21:00 +15°C° 0 mm 7 mps 726 mmHg 85%
    22:00 +15°C° 0 mm 7 mps 726 mmHg 85%
    23:00 +15°C° 0 mm 7 mps 726 mmHg 85%

    23 March, Saturday

    Time Temperature Precipitation Wind Pressure Humidity
    00:00 +15°C° 0 mm 7 mps 726 mmHg 86%
    01:00 +14°C° 0 mm 6 mps 726 mmHg 87%
    02:00 +14°C° 0 mm 6 mps 726 mmHg 89%
    03:00 +14°C° 0 mm 6 mps 726 mmHg 89%
    04:00 +14°C° 0 mm 6 mps 725 mmHg 89%
    05:00 +14°C° 0 mm 6 mps 725 mmHg 90%
    06:00 +14°C° 0 mm 6 mps 726 mmHg 86%
    07:00 +14°C° 0 mm 6 mps 726 mmHg 83%
    08:00 +15°C° 0 mm 6 mps 727 mmHg 80%
    09:00 +16°C° 0 mm 6 mps 727 mmHg 75%
    10:00 +17°C° 0 mm 5 mps 727 mmHg 70%
    11:00 +19°C° 0 mm 5 mps 727 mmHg 65%
    12:00 +19°C° 0 mm 5 mps 727 mmHg 65%
    13:00 +19°C° 0 mm 5 mps 727 mmHg 65%
    14:00 +19°C° 0 mm 5 mps 726 mmHg 65%
    15:00 +19°C° 0 mm 5 mps 726 mmHg 68%
    16:00 +17°C° 0 mm 5 mps 726 mmHg 70%
    17:00 +17°C° 0 mm 5 mps 726 mmHg 73%
    18:00 +16°C° 0 mm 5 mps 726 mmHg 76%
    19:00 +17°C° 0 mm 4 mps 726 mmHg 79%
    20:00 +15°C° 0 mm 4 mps 727 mmHg 83%
    21:00 +15°C° 0 mm 4 mps 727 mmHg 83%
    22:00 +15°C° 0 mm 4 mps 727 mmHg 84%
    23:00 +15°C° 0 mm 4 mps 727 mmHg 85%

    24 March, Sunday

    Time Temperature Precipitation Wind Pressure Humidity
    00:00 +15°C° 0 mm 4 mps 726 mmHg 86%
    01:00 +14°C° 0 mm 4 mps 726 mmHg 87%
    02:00 +14°C° 0 mm 3 mps 726 mmHg 88%
    03:00 +14°C° 0 mm 3 mps 725 mmHg 89%
    04:00 +14°C° 0 mm 3 mps 725 mmHg 90%
    05:00 +14°C° 0 mm 3 mps 725 mmHg 91%
    06:00 +14°C° 0 mm 3 mps 726 mmHg 89%
    07:00 +14°C° 0 mm 3 mps 726 mmHg 87%
    08:00 +14°C° 0 mm 3 mps 726 mmHg 85%
    09:00 +16°C° 0 mm 3 mps 726 mmHg 82%
    10:00 +17°C° 0 mm 3 mps 726 mmHg 79%
    11:00 +17°C° 0 mm 3 mps 726 mmHg 75%
    12:00 +17°C° 0 mm 3 mps 726 mmHg 76%
    13:00 +17°C° 0 mm 3 mps 726 mmHg 76%
    14:00 +17°C° 0 mm 2 mps 725 mmHg 77%
    15:00 +17°C° 0 mm 2 mps 725 mmHg 79%
    16:00 +16°C° 0 mm 2 mps 725 mmHg 82%
    17:00 +16°C° 0 mm 2 mps 724 mmHg 85%
    18:00 +16°C° 0 mm 2 mps 725 mmHg 86%
    19:00 +16°C° 0 mm 2 mps 725 mmHg 87%
    20:00 +16°C° 0 mm 3 mps 725 mmHg 88%
    21:00 +16°C° 0 mm 3 mps 725 mmHg 89%
    22:00 +16°C° 0 mm 2 mps 724 mmHg 89%
    23:00 +15°C° 0 mm 2 mps 724 mmHg 89%
    Show more